Starlink 3240

operational
NORAD ID: 49728 Int'l Des: 2021-115 Owner: SPXS Country: US Constellation: starlink
LEOCIRCULAR

About Starlink 3240

Description loading...

Live Position

Loading 3D Globe...

Upcoming Passes

Altitude History

Altitude vs Time

uPlot chart will show altitude changes over time

Two-Line Element Set

1 49728U 21115E 26066.31532312 .00000790 00000-0 67701-4 0 9991
2 49728 53.2173 169.7802 0001192 87.6676 272.4453 15.08835664235035
Epoch: Mar 7, 2026 • Age: 15 hours

Current Status

Altitude 553.8 km
Velocity 7.58 km/s
Sub-Earth Point -40.44°S, 94.48°E
Launch Date Dec 2, 2021
Age 4.2 years
Type internet

Technical Details

Classification Payload
Mass 290.00 kg
Dry Mass 270.00 kg
Total Mass 290.00 kg
Length 0.20 m
Diameter 2.80 m
Span 9.00 m
Shape Box + pan
Manufacturer SPXS
Bus Type Starlink
Phase Status In Orbit
Owner/State SPXS/US

Large Constellations

Loading constellations...